Temperature
8 6 6 6 7 8 7 7 7 8 8 8 8 8 7 8 8 8 8 9 9 10 10 10 10 10 10 10 10 10 10 11 11 11 11 11 11 11 11 10 10 10 10 10
6 6 7 7 8 8 7 7 7 8 8 8 8 8 8 8 8 8 8 9 9 9 10 10 10 10 10 10 10 10 10 10 10 10 10 10 10 10 10 10 10 10 10 10
7 7 7 8 7 8 7 7 7 8 8 7 8 8 8 8 8 8 9 9 9 10 10 10 10 10 10 10 10 10 10 10 10 10 10 10 10 10 10 10 10 9 9 10
6 7 7 7 7 8 7 8 8 8 7 6 7 8 8 8 8 8 8 9 9 10 10 10 10 10 10 10 10 10 10 10 9 9 9 9 9 9 9 9 9 9 9 9
6 6 7 7 7 7 7 7 7 7 7 7 7 7 7 7 8 8 8 9 10 10 10 10 10 10 10 10 10 10 9 9 9 9 9 9 9 9 9 9 9 9 8 8
7 7 7 7 7 7 7 7 7 6 6 7 7 7 7 6 8 8 8 9 10 10 10 10 10 10 10 10 10 9 9 9 9 9 9 9 9 8 8 8 8 8 8 8
6 7 7 7 8 7 7 6 6 7 6 7 6 6 6 7 7 7 8 9 10 10 10 10 10 10 10 10 10 9 9 9 9 9 8 8 8 8 8 8 8 8 8 8
6 6 6 6 7 7 7 7 6 7 7 6 5 6 6 7 7 8 8 9 10 10 10 10 10 10 10 10 9 9 9 9 8 8 8 8 8 8 8 7 7 7 7 7
6 6 6 7 7 7 7 5 6 5 5 5 5 5 6 7 7 7 8 9 9 10 10 10 10 10 10 9 9 9 9 8 8 8 8 8 7 7 7 7 7 7 7 7
6 6 6 6 7 7 7 5 4 5 7 7 6 6 6 7 7 7 7 8 9 10 10 10 10 10 9 9 9 8 8 8 8 8 7 7 7 7 7 7 7 7 6 6
6 5 5 6 6 6 6 6 4 4 5 6 6 6 6 6 7 6 7 8 9 9 10 10 9 9 9 9 9 8 8 8 8 7 7 7 7 7 7 7 6 6 6 6
5 4 4 5 6 6 6 6 5 6 5 4 4 5 7 6 6 6 7 8 9 9 9 9 9 9 9 9 8 8 8 8 8 7 7 7 7 7 7 6 6 6 6 6
5 5 5 6 6 5 6 5 5 4 4 3 4 6 6 6 6 7 7 8 9 9 9 9 9 9 9 8 8 8 8 8 7 7 7 7 7 7 6 6 6 6 6 5
5 4 5 7 7 5 5 5 5 4 4 4 4 5 6 6 6 6 7 8 8 9 9 9 8 8 8 8 8 8 7 7 7 7 7 7 7 6 6 6 6 5 5 5
4 4 4 4 4 4 5 5 4 4 4 4 4 4 5 6 5 7 8 8 8 8 8 8 8 8 8 8 8 7 7 7 7 7 6 6 6 6 6 6 5 5 5 5
3 4 4 3 4 4 4 4 4 4 4 4 4 5 5 6 6 6 7 7 7 7 7 7 7 7 7 7 7 7 7 7 6 6 6 6 6 6 6 5 5 5 5 5
2 3 4 3 3 4 4 4 4 4 3 4 4 5 5 5 5 6 7 7 7 7 7 7 7 7 7 7 7 6 6 6 6 6 6 6 6 5 5 5 5 5 4 4
2 2 3 3 3 5 6 5 4 4 4 4 4 5 5 5 6 7 7 7 7 7 7 7 6 6 6 6 6 6 6 6 6 6 6 5 5 5 5 4 4 4 4 4
2 3 2 2 3 3 5 5 4 4 5 4 4 4 5 5 5 6 7 7 7 6 6 6 6 6 6 6 5 5 5 5 5 5 5 5 5 5 4 4 4 4 3 3
1 2 2 2 3 5 7 6 5 5 5 5 4 4 4 4 3 5 7 6 6 6 6 6 5 5 5 5 5 5 5 5 5 5 4 4 4 4 4 4 3 3 3 3
1 1 2 2 3 3 4 5 5 5 6 6 6 5 5 4 5 6 6 6 6 5 5 5 5 5 5 5 4 4 4 4 4 4 4 4 4 3 3 3 3 3 3 2
1 1 1 2 2 4 4 4 4 5 6 6 6 6 6 6 6 6 6 5 5 5 5 5 4 4 4 4 4 4 4 4 4 3 3 3 3 3 3 3 2 2 2 2
1 2 2 2 4 5 5 5 6 6 6 6 6 6 6 5 5 5 5 5 4 4 4 4 4 4 4 4 4 4 3 3 3 3 3 3 3 3 2 2 2 2 2 1
1 1 1 1 2 3 5 6 6 6 6 6 6 5 5 5 5 4 4 4 4 4 4 4 4 4 4 3 3 3 3 3 3 3 3 2 2 2 2 2 1 1 1 1
2 0 0 1 2 3 5 6 6 6 6 5 5 5 5 4 4 4 4 4 3 3 3 3 3 3 3 3 3 3 3 2 2 2 2 2 2 2 1 1 1 1 1 0
1 1 1 3 4 3 5 6 6 5 5 5 5 4 4 4 4 3 3 3 3 3 3 3 3 3 3 3 3 2 2 2 2 2 2 1 1 1 1 1 1 1 0 -0
Wind_Speed
5 6 4 3 1 2 3 4 4 3 4 4 4 3 2 1 3 2 2 2 3 2 1 2 2 3 3 3 3 2 3 3 3 3 2 2 2 2 3 4 6 7 7 7
6 5 5 3 3 5 5 6 4 4 5 4 4 3 2 0 2 3 3 4 4 3 2 2 2 2 2 2 2 2 1 1 2 2 1 1 1 1 1 2 5 7 7 7
4 4 4 3 5 7 6 3 2 1 4 6 4 5 2 1 0 1 2 3 3 5 5 4 3 3 2 2 2 2 1 1 1 1 2 2 2 2 2 2 3 5 6 6
4 5 4 6 5 4 3 2 2 3 4 4 4 1 4 2 3 2 3 3 4 4 5 5 4 4 4 4 2 2 2 1 1 1 2 1 1 0 1 1 2 3 5 5
4 5 6 5 4 3 0 2 3 3 4 3 5 2 6 3 3 4 4 5 5 5 6 6 6 5 4 3 3 2 2 2 1 1 2 1 1 1 1 1 2 3 3 4
2 2 2 2 2 2 0 4 5 5 5 2 2 1 5 3 4 4 4 4 5 5 5 5 4 4 3 3 2 2 2 2 2 2 2 2 2 2 1 2 2 2 2 2
6 5 5 3 4 6 6 6 5 6 5 3 2 1 7 6 4 4 5 6 5 4 5 5 5 4 4 4 3 3 3 3 3 3 3 3 3 3 3 3 3 2 2 2
4 5 6 5 2 2 3 4 5 3 3 4 3 4 7 5 5 4 4 3 2 2 4 4 5 5 5 5 4 4 4 4 4 4 4 3 3 3 3 4 3 3 3 3
2 3 4 3 2 2 3 3 3 5 1 2 5 7 8 3 2 2 2 2 1 1 3 4 4 4 4 5 5 5 5 5 4 5 4 4 4 4 4 4 3 3 3 3
2 1 4 5 2 4 3 5 4 3 2 3 6 5 5 5 4 3 3 3 3 2 2 2 3 3 4 4 4 4 4 5 5 5 5 4 5 5 5 4 4 4 4 3
2 1 4 3 1 1 2 3 4 3 3 3 3 6 5 5 4 4 4 4 4 3 3 3 3 2 3 2 3 3 4 5 5 5 5 5 5 4 4 4 5 5 4 4
2 3 2 4 2 1 2 3 5 3 2 3 3 7 5 5 5 4 3 3 3 3 2 3 2 2 2 2 3 3 4 5 5 5 5 5 5 4 5 5 5 5 5 4
3 3 2 4 3 1 1 3 4 4 4 4 4 7 3 2 2 2 2 3 3 3 2 2 2 3 3 3 3 4 4 5 4 4 5 5 5 5 6 6 6 5 5 5
3 2 5 6 4 2 4 4 5 5 4 5 8 9 7 5 4 4 4 3 3 3 2 2 2 3 4 4 4 4 5 4 4 4 4 6 6 6 6 6 6 5 5 5
3 2 4 6 6 5 7 8 8 9 9 9 9 9 11 8 6 5 4 4 3 3 3 3 3 3 4 4 4 4 5 4 3 4 5 6 5 5 5 5 5 5 5 6
2 2 2 4 4 5 8 12 11 11 9 11 10 12 10 7 5 5 5 5 4 4 4 4 4 4 5 5 5 5 5 4 3 4 5 5 4 4 5 5 5 5 5 5
3 3 1 4 5 6 9 10 12 8 8 9 12 11 4 4 5 6 6 6 6 6 5 5 5 5 5 5 5 5 5 4 3 4 5 4 4 4 5 4 4 5 5 4
6 4 2 3 3 7 7 2 7 8 8 10 8 7 6 6 5 6 6 6 6 5 5 5 5 5 5 4 4 4 3 3 3 4 5 4 4 5 4 4 5 5 4 4
5 5 3 2 4 9 9 4 5 6 7 8 10 9 6 3 2 5 4 5 5 5 5 5 5 5 4 5 4 3 3 3 4 5 5 5 4 5 4 5 5 5 4 5
2 3 4 4 4 7 5 1 3 3 6 4 6 6 4 3 1 5 3 3 4 4 4 5 4 4 5 5 3 3 4 4 5 6 6 5 4 5 6 6 5 4 4 5
4 4 6 7 8 9 6 2 4 3 6 2 5 5 5 6 6 4 3 3 4 4 5 4 4 4 5 4 3 4 5 6 6 5 5 5 5 5 5 5 4 4 4 4
9 8 8 6 7 10 4 6 6 7 2 2 4 4 5 6 6 5 4 5 5 5 5 4 4 5 5 4 3 5 7 6 5 4 5 5 4 4 3 4 4 3 3 4
9 9 7 10 10 4 5 7 5 3 4 4 4 5 5 5 6 6 6 6 5 6 5 4 4 6 6 4 4 6 7 5 4 4 5 5 4 4 3 4 4 3 3 4
6 4 5 7 9 8 7 7 6 6 6 6 5 5 5 6 7 7 7 6 6 5 5 4 4 6 7 5 5 6 6 5 4 5 5 4 4 4 3 3 4 4 4 4
7 7 5 8 8 7 7 8 8 6 6 6 6 5 6 7 7 7 6 7 6 6 5 4 5 6 8 6 6 6 5 4 4 5 5 4 4 4 4 4 4 5 6 6
7 9 8 9 8 7 7 6 6 7 7 7 7 7 6 7 8 7 7 7 6 6 5 5 6 6 7 6 7 6 5 4 4 5 5 4 4 4 4 4 5 7 9 11
Wind_Direction
17 50 26 333 317 151 121 91 66 8 358 54 67 64 21 81 106 132 161 172 179 197 173 131 128 127 115 103 99 87 75 56 55 54 51 45 26 17 24 27 30 31 31 33
37 26 325 314 43 76 77 80 48 16 20 59 57 18 337 149 172 190 195 205 205 202 187 181 159 155 153 154 138 121 109 78 62 69 85 102 97 39 24 9 23 26 27 27
65 318 326 52 52 57 43 84 97 54 21 38 42 357 344 344 7 184 203 210 214 207 208 210 203 202 187 193 184 180 168 124 81 75 79 67 51 27 12 2 1 8 17 24
34 345 25 55 38 42 34 350 90 80 65 10 41 349 302 310 308 264 241 229 230 225 215 211 210 214 212 214 196 188 176 164 139 108 107 120 134 283 290 316 335 353 9 11
8 3 27 40 359 24 61 15 63 71 89 42 25 85 294 330 286 273 258 241 238 225 213 213 214 214 209 194 185 193 188 188 164 142 150 142 176 239 292 326 336 344 350 353
358 347 26 344 338 42 115 52 51 46 59 29 338 106 288 264 247 275 275 255 240 223 212 214 211 200 193 180 184 191 199 216 198 185 179 180 207 230 274 300 307 317 322 331
1 4 3 4 22 19 44 67 35 13 12 274 310 226 256 266 259 253 271 276 259 224 205 205 200 203 206 202 206 205 212 234 221 209 210 209 215 217 233 255 264 276 288 296
31 335 343 5 47 25 30 97 134 174 238 291 328 253 261 276 287 274 274 285 283 221 214 217 216 214 216 217 213 211 221 236 228 221 226 223 220 220 234 240 239 246 253 259
88 292 324 346 348 84 78 82 134 129 122 302 292 296 305 310 327 332 342 360 352 251 232 233 232 226 225 225 221 217 223 238 237 231 231 229 226 226 237 241 239 246 249 254
136 281 314 319 24 36 96 135 91 105 134 287 302 288 270 291 290 304 315 315 312 311 283 257 248 244 241 234 231 223 224 235 239 233 232 235 230 229 232 232 240 246 251 249
111 143 321 359 88 167 81 96 102 108 142 166 275 277 233 237 260 258 270 287 289 285 283 279 273 263 253 243 229 228 235 241 244 238 235 238 241 235 230 232 240 242 244 238
105 118 285 273 257 213 189 174 151 154 213 177 200 268 272 250 265 249 261 294 304 295 293 290 287 283 273 264 255 247 246 247 247 241 237 239 242 237 236 240 241 237 239 234
133 113 360 345 347 356 237 193 168 140 137 172 197 262 300 310 290 272 274 302 314 319 325 327 331 315 294 281 272 263 257 256 256 243 241 245 243 239 241 243 242 234 233 234
121 158 194 220 244 223 247 226 183 158 184 216 227 253 286 290 287 286 284 287 294 304 317 320 319 308 298 288 278 271 269 259 255 244 243 248 248 243 244 244 239 233 227 227
117 222 248 259 268 258 248 240 213 210 210 217 238 238 256 255 251 256 259 265 282 297 305 296 291 291 295 295 289 279 274 269 254 247 249 252 255 250 247 245 242 238 233 233
120 207 290 288 273 261 262 248 230 229 227 234 251 264 256 252 240 253 253 246 253 266 274 280 284 288 289 289 289 288 283 278 258 251 256 261 261 257 251 248 244 241 240 237
167 165 239 282 310 321 270 236 208 208 209 199 226 242 244 238 238 241 243 239 241 250 259 266 271 269 270 274 275 275 275 278 262 259 264 263 257 257 254 248 242 242 241 234
164 160 189 283 346 254 250 207 188 206 232 214 228 242 238 238 248 250 235 224 238 246 255 264 267 270 272 271 276 274 275 273 265 265 268 265 257 256 257 248 245 245 239 236
181 169 182 208 265 276 288 241 178 193 261 219 221 242 250 259 326 294 245 214 229 241 250 254 257 261 272 279 281 281 285 284 276 271 269 265 255 255 254 251 251 246 240 242
105 154 177 194 237 254 258 215 175 133 279 234 200 220 215 140 245 269 261 248 258 264 263 262 268 271 274 278 279 273 278 277 271 267 266 262 252 247 248 249 251 246 238 243
153 179 204 216 240 265 257 211 131 185 255 216 191 202 186 199 222 250 280 273 266 271 273 267 264 266 267 273 267 266 272 269 269 271 269 264 255 251 250 251 248 248 244 246
182 185 198 190 217 253 210 145 188 227 265 200 200 206 210 233 258 271 276 274 276 279 276 268 262 270 272 263 248 262 268 269 276 275 272 269 265 261 256 249 254 247 238 244
203 197 193 200 220 253 195 209 237 228 227 226 219 229 226 243 260 268 270 269 272 271 271 267 260 275 281 265 237 255 267 274 279 278 275 274 273 266 255 243 250 254 239 240
236 199 206 246 261 258 252 249 251 231 229 237 231 231 225 239 256 265 269 270 269 269 269 268 270 275 281 276 257 251 267 273 269 271 274 273 271 273 265 249 241 240 239 242
219 182 213 249 267 281 263 238 238 237 239 243 245 239 232 236 253 255 259 263 262 265 266 262 262 267 274 279 273 267 264 259 261 266 267 267 261 261 262 255 243 240 236 233
200 194 204 239 228 219 252 251 230 227 237 240 245 256 247 231 243 250 254 256 258 262 266 270 267 266 272 275 276 274 262 247 249 263 263 258 257 258 257 265 276 257 251 260
Height
1497 1501 1505 1504 1502 1501 1502 1503 1505 1504 1501 1501 1503 1504 1505 1504 1504 1505 1506 1507 1508 1510 1512 1514 1515 1517 1518 1519 1520 1520 1521 1522 1523 1523 1523 1524 1524 1524 1524 1523 1523 1522 1522 1522
1504 1506 1505 1503 1501 1501 1502 1505 1507 1505 1503 1504 1505 1506 1505 1504 1505 1505 1506 1507 1508 1510 1512 1513 1515 1516 1517 1518 1519 1520 1521 1522 1522 1522 1522 1523 1523 1523 1523 1522 1521 1521 1520 1520
1508 1509 1504 1503 1504 1504 1506 1507 1508 1508 1506 1506 1506 1508 1506 1505 1505 1505 1506 1506 1508 1509 1510 1512 1514 1515 1516 1517 1518 1520 1520 1521 1521 1521 1522 1522 1522 1521 1521 1521 1520 1519 1519 1518
1510 1508 1506 1506 1507 1506 1509 1507 1507 1507 1511 1516 1514 1518 1509 1507 1506 1505 1505 1505 1506 1507 1509 1511 1512 1514 1515 1516 1517 1518 1519 1520 1520 1520 1520 1520 1520 1520 1520 1519 1518 1518 1517 1516
1512 1510 1509 1509 1510 1508 1510 1508 1509 1510 1512 1517 1518 1520 1515 1508 1506 1504 1503 1503 1504 1506 1507 1509 1511 1512 1514 1515 1516 1517 1518 1518 1519 1519 1519 1519 1519 1518 1518 1517 1516 1516 1515 1514
1513 1511 1511 1511 1510 1509 1509 1509 1511 1516 1518 1521 1521 1522 1517 1512 1506 1503 1502 1502 1502 1504 1505 1507 1509 1511 1512 1513 1514 1515 1516 1516 1517 1517 1517 1517 1517 1516 1516 1515 1514 1514 1513 1512
1516 1514 1513 1512 1511 1511 1512 1517 1527 1526 1531 1527 1524 1523 1518 1506 1503 1502 1501 1500 1500 1501 1503 1505 1507 1509 1510 1511 1513 1513 1514 1514 1515 1515 1515 1515 1515 1514 1514 1513 1512 1512 1511 1510
1522 1523 1517 1515 1515 1515 1516 1519 1529 1531 1532 1532 1527 1524 1512 1503 1501 1500 1500 1499 1499 1500 1501 1503 1505 1507 1508 1510 1511 1511 1511 1512 1512 1512 1513 1513 1512 1512 1511 1511 1510 1509 1509 1507
1525 1524 1518 1516 1515 1515 1517 1524 1525 1533 1535 1534 1528 1522 1509 1501 1500 1500 1499 1499 1498 1499 1500 1502 1504 1505 1507 1508 1508 1509 1509 1509 1510 1510 1510 1510 1510 1509 1509 1508 1507 1507 1506 1505
1523 1526 1521 1518 1516 1517 1519 1523 1529 1530 1529 1529 1526 1524 1517 1505 1502 1500 1499 1499 1498 1499 1500 1501 1502 1504 1505 1505 1506 1506 1507 1507 1507 1507 1507 1507 1506 1506 1506 1505 1504 1503 1503 1502
1523 1526 1524 1521 1520 1520 1521 1524 1528 1534 1533 1534 1530 1521 1507 1504 1501 1500 1499 1498 1498 1499 1499 1500 1501 1502 1503 1503 1504 1504 1504 1504 1504 1504 1504 1503 1503 1503 1502 1502 1501 1500 1500 1499
1524 1529 1529 1523 1520 1520 1520 1521 1526 1528 1531 1538 1537 1524 1501 1501 1499 1499 1498 1498 1498 1498 1499 1499 1500 1500 1501 1501 1501 1501 1501 1501 1501 1500 1500 1500 1499 1499 1498 1498 1497 1497 1496 1495
1524 1528 1528 1522 1524 1523 1521 1520 1523 1526 1531 1537 1533 1518 1500 1499 1498 1498 1497 1497 1497 1497 1498 1498 1498 1498 1498 1499 1498 1498 1498 1497 1497 1497 1496 1496 1495 1495 1494 1494 1493 1493 1492 1491
1523 1527 1528 1523 1519 1520 1520 1519 1521 1524 1529 1529 1524 1513 1502 1499 1498 1497 1496 1496 1496 1496 1496 1496 1496 1496 1496 1496 1495 1495 1494 1494 1493 1493 1492 1492 1491 1491 1490 1489 1489 1488 1487 1486
1522 1526 1525 1523 1521 1520 1518 1516 1517 1518 1517 1518 1511 1510 1499 1497 1496 1495 1495 1495 1495 1494 1494 1494 1494 1494 1493 1493 1492 1492 1491 1490 1489 1488 1488 1487 1487 1486 1486 1485 1484 1483 1482 1482
1523 1525 1525 1522 1518 1519 1516 1511 1512 1511 1510 1509 1507 1502 1493 1493 1493 1493 1492 1492 1492 1492 1492 1492 1491 1491 1490 1490 1489 1488 1487 1486 1485 1484 1484 1483 1482 1481 1481 1480 1479 1478 1478 1477
1524 1525 1524 1523 1520 1515 1510 1500 1501 1502 1500 1501 1500 1493 1489 1490 1490 1489 1489 1489 1489 1489 1489 1489 1488 1488 1487 1486 1485 1484 1483 1482 1481 1480 1479 1478 1477 1476 1476 1475 1474 1473 1473 1472
1522 1524 1525 1524 1520 1514 1494 1490 1491 1493 1491 1491 1489 1487 1486 1486 1486 1486 1486 1486 1486 1486 1486 1486 1485 1484 1484 1483 1482 1480 1479 1478 1477 1476 1475 1474 1473 1472 1471 1470 1469 1469 1468 1467
1517 1520 1523 1524 1522 1509 1493 1488 1489 1491 1488 1484 1485 1484 1484 1484 1484 1483 1483 1483 1483 1483 1483 1482 1482 1481 1480 1479 1478 1476 1475 1474 1473 1471 1470 1469 1468 1467 1466 1465 1465 1464 1463 1462
1517 1518 1522 1522 1517 1502 1487 1485 1484 1487 1486 1480 1480 1480 1481 1483 1486 1482 1480 1480 1480 1480 1479 1478 1477 1476 1476 1475 1474 1472 1471 1469 1468 1467 1466 1465 1463 1462 1461 1460 1460 1459 1457 1456
1518 1519 1519 1518 1514 1499 1487 1484 1485 1490 1482 1477 1477 1478 1479 1480 1480 1479 1478 1477 1477 1476 1475 1474 1473 1473 1472 1471 1470 1468 1467 1465 1464 1463 1461 1460 1459 1458 1456 1455 1454 1453 1452 1451
1508 1512 1513 1512 1511 1497 1482 1483 1484 1480 1476 1475 1475 1476 1476 1476 1476 1475 1475 1474 1473 1472 1471 1470 1469 1468 1468 1467 1465 1464 1463 1461 1460 1458 1457 1455 1454 1453 1451 1450 1449 1448 1447 1446
1499 1496 1496 1495 1487 1479 1477 1476 1476 1475 1475 1474 1473 1473 1474 1473 1472 1472 1471 1470 1469 1468 1467 1466 1465 1464 1463 1462 1461 1459 1458 1457 1455 1453 1452 1451 1449 1448 1447 1445 1444 1443 1442 1440
1491 1488 1490 1488 1479 1475 1474 1473 1473 1473 1472 1471 1471 1471 1470 1469 1469 1468 1467 1466 1465 1464 1463 1462 1461 1459 1458 1458 1456 1455 1453 1452 1450 1449 1447 1446 1444 1443 1442 1440 1439 1437 1436 1435
1481 1484 1484 1481 1474 1471 1468 1468 1468 1468 1468 1468 1467 1467 1466 1465 1465 1464 1463 1462 1461 1460 1459 1458 1456 1455 1454 1453 1451 1450 1449 1447 1445 1444 1442 1441 1439 1438 1436 1435 1434 1432 1431 1430
1473 1475 1476 1470 1466 1467 1464 1464 1464 1463 1463 1463 1463 1462 1461 1461 1460 1459 1458 1457 1456 1455 1454 1453 1451 1450 1449 1448 1447 1445 1444 1442 1440 1438 1437 1436 1434 1432 1431 1429 1428 1427 1426 1425